Tracking 29089 objects as of 12-Jul-2024
HD Live streaming from Space Station
objects crossing your sky now

GB 1

Track GB 1 now!
10-day predictions
GB 1 is classified as:


NORAD ID: 14143
Int'l Code: 1983-056C
Perigee: 412.4 km
Apogee: 1,604.7 km
Inclination: 63.3 °
Period: 105.1 minutes
Semi major axis: 7379 km
RCS: Unknown
Launch date: June 9, 1983
Source: United States (US)
Launch site: AIR FORCE WESTERN TEST RANGE (AFWTR)
Your satellite tracking list
Your tracking list is empty




NASA's NSSDC Master Catalog

Two Line Element Set (TLE):
1 14143U 83056C   24194.27711047  .00011157  00000-0  10646-2 0  9998
2 14143  63.3059  28.8955 0807801 119.3928 249.0228 13.69491670249687
Source of the keplerian elements: McCants